Year,Month,Day,Hour,Minute,Value (Times are PST for temperature in C)
2022,04,27,00,00,4.90
2022,04,27,00,01,4.90
2022,04,27,00,02,4.90
2022,04,27,00,03,4.90
2022,04,27,00,04,4.90
2022,04,27,00,05,4.90
2022,04,27,00,06,4.90
2022,04,27,00,07,4.90
2022,04,27,00,08,4.90
2022,04,27,00,09,4.90
2022,04,27,00,10,4.90
2022,04,27,00,11,4.90
2022,04,27,00,12,4.80
2022,04,27,00,13,4.80
2022,04,27,00,14,4.80
2022,04,27,00,15,4.80
2022,04,27,00,16,4.80
2022,04,27,00,17,4.80
2022,04,27,00,18,4.80
2022,04,27,00,19,4.70
2022,04,27,00,20,4.70
2022,04,27,00,21,4.70
2022,04,27,00,22,4.70
2022,04,27,00,23,4.60
2022,04,27,00,24,4.60
2022,04,27,00,25,4.60
2022,04,27,00,26,4.60
2022,04,27,00,27,4.50
2022,04,27,00,28,4.50
2022,04,27,00,29,4.50
2022,04,27,00,30,4.50
2022,04,27,00,31,4.40
2022,04,27,00,32,4.40
2022,04,27,00,33,4.40
2022,04,27,00,34,4.30
2022,04,27,00,35,4.30
2022,04,27,00,36,4.30
2022,04,27,00,37,4.30
2022,04,27,00,38,4.30
2022,04,27,00,39,4.30
2022,04,27,00,40,4.30
2022,04,27,00,41,4.30
2022,04,27,00,42,4.30
2022,04,27,00,43,4.30
2022,04,27,00,44,4.20
2022,04,27,00,45,4.20
2022,04,27,00,46,4.20
2022,04,27,00,47,4.20
2022,04,27,00,48,4.20
2022,04,27,00,49,4.20
2022,04,27,00,50,4.20
2022,04,27,00,51,4.10
2022,04,27,00,52,4.10
2022,04,27,00,53,4.10
2022,04,27,00,54,4.10
2022,04,27,00,55,4.10
2022,04,27,00,56,4.00
2022,04,27,00,57,4.00
2022,04,27,00,58,4.00
2022,04,27,00,59,4.00
2022,04,27,01,00,3.90
2022,04,27,01,01,3.90
2022,04,27,01,02,3.90
2022,04,27,01,03,3.90
2022,04,27,01,04,3.90
2022,04,27,01,05,3.90
2022,04,27,01,06,3.90
2022,04,27,01,07,3.90
2022,04,27,01,08,3.80
2022,04,27,01,09,3.80
2022,04,27,01,10,3.80
2022,04,27,01,11,3.80
2022,04,27,01,12,3.80
2022,04,27,01,13,3.80
2022,04,27,01,14,3.80
2022,04,27,01,15,3.80
2022,04,27,01,16,3.80
2022,04,27,01,17,3.80
2022,04,27,01,18,3.80
2022,04,27,01,19,3.80
2022,04,27,01,20,3.80
2022,04,27,01,21,3.70
2022,04,27,01,22,3.70
2022,04,27,01,23,3.70
2022,04,27,01,24,3.70
2022,04,27,01,25,3.70
2022,04,27,01,26,3.70
2022,04,27,01,27,3.70
2022,04,27,01,28,3.70
2022,04,27,01,29,3.70
2022,04,27,01,30,3.70
2022,04,27,01,31,3.70
2022,04,27,01,32,3.70
2022,04,27,01,33,3.70
2022,04,27,01,34,3.70
2022,04,27,01,35,3.70
2022,04,27,01,36,3.60
2022,04,27,01,37,3.70
2022,04,27,01,38,3.70
2022,04,27,01,39,3.70
2022,04,27,01,40,3.70
2022,04,27,01,41,3.70
2022,04,27,01,42,3.80
2022,04,27,01,43,3.90
2022,04,27,01,44,4.00
2022,04,27,01,45,4.10
2022,04,27,01,46,4.10
2022,04,27,01,47,4.10
2022,04,27,01,48,4.10
2022,04,27,01,49,4.10
2022,04,27,01,50,4.10
2022,04,27,01,51,4.10
2022,04,27,01,52,4.00
2022,04,27,01,53,4.00
2022,04,27,01,54,4.00
2022,04,27,01,55,4.00
2022,04,27,01,56,4.00
2022,04,27,01,57,4.00
2022,04,27,01,58,4.10
2022,04,27,01,59,4.10
2022,04,27,02,00,4.10
2022,04,27,02,01,4.10
2022,04,27,02,02,4.10
2022,04,27,02,03,4.00
2022,04,27,02,04,4.00
2022,04,27,02,05,4.00
2022,04,27,02,06,4.10
2022,04,27,02,07,4.00
2022,04,27,02,08,4.00
2022,04,27,02,09,4.00
2022,04,27,02,10,4.00
2022,04,27,02,11,4.00
2022,04,27,02,12,4.00
2022,04,27,02,13,4.00
2022,04,27,02,14,4.00
2022,04,27,02,15,4.00
2022,04,27,02,16,4.00
2022,04,27,02,17,3.90
2022,04,27,02,18,3.90
2022,04,27,02,19,3.90
2022,04,27,02,20,3.90
2022,04,27,02,21,3.90
2022,04,27,02,22,3.90
2022,04,27,02,23,3.90
2022,04,27,02,24,3.90
2022,04,27,02,25,3.90
2022,04,27,02,26,3.90
2022,04,27,02,27,3.90
2022,04,27,02,28,3.90
2022,04,27,02,29,3.90
2022,04,27,02,30,4.00
2022,04,27,02,31,4.00
2022,04,27,02,32,4.00
2022,04,27,02,33,4.00
2022,04,27,02,34,4.00
2022,04,27,02,35,3.90
2022,04,27,02,36,3.90
2022,04,27,02,37,3.90
2022,04,27,02,38,3.90
2022,04,27,02,39,3.90
2022,04,27,02,40,3.90
2022,04,27,02,41,3.90
2022,04,27,02,42,3.90
2022,04,27,02,43,3.90
2022,04,27,02,44,4.00
2022,04,27,02,45,4.00
2022,04,27,02,46,4.00
2022,04,27,02,47,4.10
2022,04,27,02,48,4.10
2022,04,27,02,49,4.10
2022,04,27,02,50,4.10
2022,04,27,02,51,4.20
2022,04,27,02,52,4.20
2022,04,27,02,53,4.20
2022,04,27,02,54,4.20
2022,04,27,02,55,4.20
2022,04,27,02,56,4.20
2022,04,27,02,57,4.20
2022,04,27,02,58,4.20
2022,04,27,02,59,4.20
2022,04,27,03,00,4.20
2022,04,27,03,01,4.10
2022,04,27,03,02,4.10
2022,04,27,03,03,4.10
2022,04,27,03,04,4.10
2022,04,27,03,05,4.10
2022,04,27,03,06,4.10
2022,04,27,03,07,4.00
2022,04,27,03,08,4.00
2022,04,27,03,09,4.00
2022,04,27,03,10,4.00
2022,04,27,03,11,4.00
2022,04,27,03,12,3.90
2022,04,27,03,13,3.90
2022,04,27,03,14,3.80
2022,04,27,03,15,3.80
2022,04,27,03,16,3.80
2022,04,27,03,17,3.70
2022,04,27,03,18,3.70
2022,04,27,03,19,3.70
2022,04,27,03,20,3.70
2022,04,27,03,21,3.60
2022,04,27,03,22,3.60
2022,04,27,03,23,3.60
2022,04,27,03,24,3.60
2022,04,27,03,25,3.60
2022,04,27,03,26,3.60
2022,04,27,03,27,3.60
2022,04,27,03,28,3.50
2022,04,27,03,29,3.50
2022,04,27,03,30,3.50
2022,04,27,03,31,3.40
2022,04,27,03,32,3.40
2022,04,27,03,33,3.40
2022,04,27,03,34,3.40
2022,04,27,03,35,3.40
2022,04,27,03,36,3.40
2022,04,27,03,37,3.40
2022,04,27,03,38,3.30
2022,04,27,03,39,3.30
2022,04,27,03,40,3.30
2022,04,27,03,41,3.30
2022,04,27,03,42,3.30
2022,04,27,03,43,3.20
2022,04,27,03,44,3.20
2022,04,27,03,45,3.20
2022,04,27,03,46,3.20
2022,04,27,03,47,3.20
2022,04,27,03,48,3.20
2022,04,27,03,49,3.10
2022,04,27,03,50,3.10
2022,04,27,03,51,3.10
2022,04,27,03,52,3.10
2022,04,27,03,53,3.10
2022,04,27,03,54,3.00
2022,04,27,03,55,3.00
2022,04,27,03,56,3.00
2022,04,27,03,57,3.00
2022,04,27,03,58,3.00
2022,04,27,03,59,2.90
2022,04,27,04,00,2.90
2022,04,27,04,01,2.90
2022,04,27,04,02,2.90
2022,04,27,04,03,2.80
2022,04,27,04,04,2.80
2022,04,27,04,05,2.80
2022,04,27,04,06,2.80
2022,04,27,04,07,2.80
2022,04,27,04,08,2.80
2022,04,27,04,09,2.80
2022,04,27,04,10,2.80
2022,04,27,04,11,2.90
2022,04,27,04,12,2.90
2022,04,27,04,13,2.90
2022,04,27,04,14,2.90
2022,04,27,04,15,2.90
2022,04,27,04,16,2.90
2022,04,27,04,17,2.90
2022,04,27,04,18,2.90
2022,04,27,04,19,2.90
2022,04,27,04,20,2.90
2022,04,27,04,21,2.90
2022,04,27,04,22,2.90
2022,04,27,04,23,2.90
2022,04,27,04,24,2.90
2022,04,27,04,25,2.90
2022,04,27,04,26,2.90
2022,04,27,04,27,2.90
2022,04,27,04,28,2.90
2022,04,27,04,29,2.90
2022,04,27,04,30,2.90
2022,04,27,04,31,2.80
2022,04,27,04,32,2.80
2022,04,27,04,33,2.80
2022,04,27,04,34,2.80
2022,04,27,04,35,2.80
2022,04,27,04,36,2.80
2022,04,27,04,37,2.80
2022,04,27,04,38,2.80
2022,04,27,04,39,2.80
2022,04,27,04,40,2.80
2022,04,27,04,41,2.80
2022,04,27,04,42,2.80
2022,04,27,04,43,2.80
2022,04,27,04,44,2.80
2022,04,27,04,45,2.80
2022,04,27,04,46,2.70
2022,04,27,04,47,2.70
2022,04,27,04,48,2.60
2022,04,27,04,49,2.60
2022,04,27,04,50,2.60
2022,04,27,04,51,2.50
2022,04,27,04,52,2.50
2022,04,27,04,53,2.50
2022,04,27,04,54,2.40
2022,04,27,04,55,2.40
2022,04,27,04,56,2.40
2022,04,27,04,57,2.40
2022,04,27,04,58,2.40
2022,04,27,04,59,2.40
2022,04,27,05,00,2.40
2022,04,27,05,01,2.40
2022,04,27,05,02,2.30
2022,04,27,05,03,2.30
2022,04,27,05,04,2.30
2022,04,27,05,05,2.30
2022,04,27,05,06,2.30
2022,04,27,05,07,2.30
2022,04,27,05,08,2.30
2022,04,27,05,09,2.30
2022,04,27,05,10,2.20
2022,04,27,05,11,2.20
2022,04,27,05,12,2.20
2022,04,27,05,13,2.20
2022,04,27,05,14,2.20
2022,04,27,05,15,2.20
2022,04,27,05,16,2.20
2022,04,27,05,17,2.20
2022,04,27,05,18,2.20
2022,04,27,05,19,2.20
2022,04,27,05,20,2.20
2022,04,27,05,21,2.20
2022,04,27,05,22,2.20
2022,04,27,05,23,2.20
2022,04,27,05,24,2.20
2022,04,27,05,25,2.20
2022,04,27,05,26,2.20
2022,04,27,05,27,2.20
2022,04,27,05,28,2.20
2022,04,27,05,29,2.20
2022,04,27,05,30,2.20
2022,04,27,05,31,2.20
2022,04,27,05,32,2.20
2022,04,27,05,33,2.20
2022,04,27,05,34,2.20
2022,04,27,05,35,2.20
2022,04,27,05,36,2.20
2022,04,27,05,37,2.20
2022,04,27,05,38,2.20
2022,04,27,05,39,2.20
2022,04,27,05,40,2.20
2022,04,27,05,41,2.20
2022,04,27,05,42,2.20
2022,04,27,05,43,2.20
2022,04,27,05,44,2.20
2022,04,27,05,45,2.20
2022,04,27,05,46,2.20
2022,04,27,05,47,2.20
2022,04,27,05,48,2.20
2022,04,27,05,49,2.20
2022,04,27,05,50,2.20
2022,04,27,05,51,2.30
2022,04,27,05,52,2.30
2022,04,27,05,53,2.30
2022,04,27,05,54,2.30
2022,04,27,05,55,2.40
2022,04,27,05,56,2.40
2022,04,27,05,57,2.40
2022,04,27,05,58,2.40
2022,04,27,05,59,2.40
2022,04,27,06,00,2.40
2022,04,27,06,01,2.40
2022,04,27,06,02,2.40
2022,04,27,06,03,2.40
2022,04,27,06,04,2.30
2022,04,27,06,05,2.30
2022,04,27,06,06,2.30
2022,04,27,06,07,2.30
2022,04,27,06,08,2.30
2022,04,27,06,09,2.20
2022,04,27,06,10,2.20
2022,04,27,06,11,2.20
2022,04,27,06,12,2.20
2022,04,27,06,13,2.20
2022,04,27,06,14,2.20
2022,04,27,06,15,2.20
2022,04,27,06,16,2.20
2022,04,27,06,17,2.20
2022,04,27,06,18,2.20
2022,04,27,06,19,2.20
2022,04,27,06,20,2.20
2022,04,27,06,21,2.30
2022,04,27,06,22,2.30
2022,04,27,06,23,2.30
2022,04,27,06,24,2.30
2022,04,27,06,25,2.30
2022,04,27,06,26,2.30
2022,04,27,06,27,2.30
2022,04,27,06,28,2.30
2022,04,27,06,29,2.30
2022,04,27,06,30,2.20
2022,04,27,06,31,2.20
2022,04,27,06,32,2.20
2022,04,27,06,33,2.20
2022,04,27,06,34,2.20
2022,04,27,06,35,2.20
2022,04,27,06,36,2.20
2022,04,27,06,37,2.20
2022,04,27,06,38,2.20
2022,04,27,06,39,2.20
2022,04,27,06,40,2.20
2022,04,27,06,41,2.20
2022,04,27,06,42,2.30
2022,04,27,06,43,2.30
2022,04,27,06,44,2.30
2022,04,27,06,45,2.30
2022,04,27,06,46,2.30
2022,04,27,06,47,2.30
2022,04,27,06,48,2.30
2022,04,27,06,49,2.30
2022,04,27,06,50,2.30
2022,04,27,06,51,2.30
2022,04,27,06,52,2.30
2022,04,27,06,53,2.30
2022,04,27,06,54,2.30
2022,04,27,06,55,2.30
2022,04,27,06,56,2.30
2022,04,27,06,57,2.30
2022,04,27,06,58,2.30
2022,04,27,06,59,2.30
2022,04,27,07,00,2.30
2022,04,27,07,01,2.30
2022,04,27,07,02,2.30
2022,04,27,07,03,2.30
2022,04,27,07,04,2.30
2022,04,27,07,05,2.30
2022,04,27,07,06,2.30
2022,04,27,07,07,2.30
2022,04,27,07,08,2.30
2022,04,27,07,09,2.30
2022,04,27,07,10,2.30
2022,04,27,07,11,2.30
2022,04,27,07,12,2.40
2022,04,27,07,13,2.40
2022,04,27,07,14,2.40
2022,04,27,07,15,2.40
2022,04,27,07,16,2.40
2022,04,27,07,17,2.50
2022,04,27,07,18,2.50
2022,04,27,07,19,2.50
2022,04,27,07,20,2.60
2022,04,27,07,21,2.60
2022,04,27,07,22,2.70
2022,04,27,07,23,2.70
2022,04,27,07,24,2.80
2022,04,27,07,25,2.80
2022,04,27,07,26,2.90
2022,04,27,07,27,2.90
2022,04,27,07,28,2.90
2022,04,27,07,29,2.90
2022,04,27,07,30,3.00
2022,04,27,07,31,3.00
2022,04,27,07,32,3.10
2022,04,27,07,33,3.10
2022,04,27,07,34,3.10
2022,04,27,07,35,3.20
2022,04,27,07,36,3.20
2022,04,27,07,37,3.30
2022,04,27,07,38,3.30
2022,04,27,07,39,3.40
2022,04,27,07,40,3.40
2022,04,27,07,41,3.50
2022,04,27,07,42,3.50
2022,04,27,07,43,3.60
2022,04,27,07,44,3.70
2022,04,27,07,45,3.70
2022,04,27,07,46,3.80
2022,04,27,07,47,3.80
2022,04,27,07,48,3.90
2022,04,27,07,49,3.90
2022,04,27,07,50,4.00
2022,04,27,07,51,4.00
2022,04,27,07,52,4.10
2022,04,27,07,53,4.10
2022,04,27,07,54,4.20
2022,04,27,07,55,4.20
2022,04,27,07,56,4.20
2022,04,27,07,57,4.30
2022,04,27,07,58,4.30
2022,04,27,07,59,4.30
2022,04,27,08,00,4.30
2022,04,27,08,01,4.30
2022,04,27,08,02,4.30
2022,04,27,08,03,4.40
2022,04,27,08,04,4.40
2022,04,27,08,05,4.40
2022,04,27,08,06,4.50
2022,04,27,08,07,4.50
2022,04,27,08,08,4.50
2022,04,27,08,09,4.60
2022,04,27,08,10,4.60
2022,04,27,08,11,4.60
2022,04,27,08,12,4.70
2022,04,27,08,13,4.70
2022,04,27,08,14,4.70
2022,04,27,08,15,4.70
2022,04,27,08,16,4.70
2022,04,27,08,17,4.80
2022,04,27,08,18,4.80
2022,04,27,08,19,4.80
2022,04,27,08,20,4.80
2022,04,27,08,21,4.80
2022,04,27,08,22,4.80
2022,04,27,08,23,4.80
2022,04,27,08,24,4.80
2022,04,27,08,25,4.90
2022,04,27,08,26,4.90
2022,04,27,08,27,4.90
2022,04,27,08,28,4.90
2022,04,27,08,29,4.90
2022,04,27,08,30,5.00
2022,04,27,08,31,5.00
2022,04,27,08,32,5.00
2022,04,27,08,33,5.10
2022,04,27,08,34,5.10
2022,04,27,08,35,5.10
2022,04,27,08,36,5.10
2022,04,27,08,37,5.20
2022,04,27,08,38,5.20
2022,04,27,08,39,5.20
2022,04,27,08,40,5.20
2022,04,27,08,41,5.20
2022,04,27,08,42,5.20
2022,04,27,08,43,5.30
2022,04,27,08,44,5.30
2022,04,27,08,45,5.30
2022,04,27,08,46,5.40
2022,04,27,08,47,5.40
2022,04,27,08,48,5.40
2022,04,27,08,49,5.40
2022,04,27,08,50,5.50
2022,04,27,08,51,5.50
2022,04,27,08,52,5.60
2022,04,27,08,53,5.60
2022,04,27,08,54,5.60
2022,04,27,08,55,5.60
2022,04,27,08,56,5.60
2022,04,27,08,57,5.60
2022,04,27,08,58,5.70
2022,04,27,08,59,5.70
2022,04,27,09,00,5.70
2022,04,27,09,01,5.70
2022,04,27,09,02,5.70
2022,04,27,09,03,5.70
2022,04,27,09,04,5.80
2022,04,27,09,05,5.80
2022,04,27,09,06,5.80
2022,04,27,09,07,5.80
2022,04,27,09,08,5.90
2022,04,27,09,09,5.90
2022,04,27,09,10,5.90
2022,04,27,09,11,5.90
2022,04,27,09,12,5.90
2022,04,27,09,13,5.90
2022,04,27,09,14,5.90
2022,04,27,09,15,5.90
2022,04,27,09,16,5.90
2022,04,27,09,17,5.90
2022,04,27,09,18,5.90
2022,04,27,09,19,5.90
2022,04,27,09,20,5.90
2022,04,27,09,21,5.90
2022,04,27,09,22,5.90
2022,04,27,09,23,5.90
2022,04,27,09,24,5.90
2022,04,27,09,25,5.90
2022,04,27,09,26,5.90
2022,04,27,09,27,5.90
2022,04,27,09,28,6.00
2022,04,27,09,29,6.00
2022,04,27,09,30,6.00
2022,04,27,09,31,6.00
2022,04,27,09,32,6.10
2022,04,27,09,33,6.10
2022,04,27,09,34,6.10
2022,04,27,09,35,6.10
2022,04,27,09,36,6.10
2022,04,27,09,37,6.10
2022,04,27,09,38,6.10
2022,04,27,09,39,6.20
2022,04,27,09,40,6.20
2022,04,27,09,41,6.30
2022,04,27,09,42,6.30
2022,04,27,09,43,6.30
2022,04,27,09,44,6.40
2022,04,27,09,45,6.40
2022,04,27,09,46,6.50
2022,04,27,09,47,6.60
2022,04,27,09,48,6.70
2022,04,27,09,49,6.80
2022,04,27,09,50,6.90
2022,04,27,09,51,6.90
2022,04,27,09,52,7.00
2022,04,27,09,53,7.10
2022,04,27,09,54,7.10
2022,04,27,09,55,7.10
2022,04,27,09,56,7.20
2022,04,27,09,57,7.20
2022,04,27,09,58,7.20
2022,04,27,09,59,7.20
2022,04,27,10,00,7.30
2022,04,27,10,01,7.30
2022,04,27,10,02,7.30
2022,04,27,10,03,7.30
2022,04,27,10,04,7.30
2022,04,27,10,05,7.40
2022,04,27,10,06,7.40
2022,04,27,10,07,7.50
2022,04,27,10,08,7.50
2022,04,27,10,09,7.50
2022,04,27,10,10,7.50
2022,04,27,10,11,7.60
2022,04,27,10,12,7.60
2022,04,27,10,13,7.60
2022,04,27,10,14,7.60
2022,04,27,10,15,7.70
2022,04,27,10,16,7.70
2022,04,27,10,17,7.60
2022,04,27,10,18,7.60
2022,04,27,10,19,7.60
2022,04,27,10,20,7.70
2022,04,27,10,21,7.70
2022,04,27,10,22,7.70
2022,04,27,10,23,7.70
2022,04,27,10,24,7.80
2022,04,27,10,25,7.80
2022,04,27,10,26,7.80
2022,04,27,10,27,7.80
2022,04,27,10,28,7.80
2022,04,27,10,29,7.80
2022,04,27,10,30,7.80
2022,04,27,10,31,7.80
2022,04,27,10,32,7.80
2022,04,27,10,33,7.90
2022,04,27,10,34,7.90
2022,04,27,10,35,7.90
2022,04,27,10,36,7.90
2022,04,27,10,37,7.90
2022,04,27,10,38,7.90
2022,04,27,10,39,7.90
2022,04,27,10,40,7.90
2022,04,27,10,41,7.90
2022,04,27,10,42,8.00
2022,04,27,10,43,8.00
2022,04,27,10,44,8.00
2022,04,27,10,45,8.10
2022,04,27,10,46,8.10
2022,04,27,10,47,8.10
2022,04,27,10,48,8.10
2022,04,27,10,49,8.10
2022,04,27,10,50,8.10
2022,04,27,10,51,8.20
2022,04,27,10,52,8.20
2022,04,27,10,53,8.30
2022,04,27,10,54,8.30
2022,04,27,10,55,8.40
2022,04,27,10,56,8.40
2022,04,27,10,57,8.40
2022,04,27,10,58,8.50
2022,04,27,10,59,8.60
2022,04,27,11,00,8.70
2022,04,27,11,01,8.80
2022,04,27,11,02,8.90
2022,04,27,11,03,9.00
2022,04,27,11,04,9.10
2022,04,27,11,05,9.10
2022,04,27,11,06,9.10
2022,04,27,11,07,9.10
2022,04,27,11,08,9.10
2022,04,27,11,09,9.10
2022,04,27,11,10,9.10
2022,04,27,11,11,9.20
2022,04,27,11,12,9.30
2022,04,27,11,13,9.40
2022,04,27,11,14,9.50
2022,04,27,11,15,9.70
2022,04,27,11,16,9.80
2022,04,27,11,17,9.90
2022,04,27,11,18,10.00
2022,04,27,11,19,10.10
2022,04,27,11,20,10.20
2022,04,27,11,21,10.20
2022,04,27,11,22,10.30
2022,04,27,11,23,10.40
2022,04,27,11,24,10.50
2022,04,27,11,25,10.50
2022,04,27,11,26,10.50
2022,04,27,11,27,10.60
2022,04,27,11,28,10.50
2022,04,27,11,29,10.40
2022,04,27,11,30,10.20
2022,04,27,11,31,10.10
2022,04,27,11,32,10.10
2022,04,27,11,33,10.10
2022,04,27,11,34,10.10
2022,04,27,11,35,10.10
2022,04,27,11,36,10.10
2022,04,27,11,37,10.00
2022,04,27,11,38,10.00
2022,04,27,11,39,9.90
2022,04,27,11,40,9.80
2022,04,27,11,41,9.70
2022,04,27,11,42,9.70
2022,04,27,11,43,9.60
2022,04,27,11,44,9.60
2022,04,27,11,45,9.50
2022,04,27,11,46,9.40
2022,04,27,11,47,9.30
2022,04,27,11,48,9.20
2022,04,27,11,49,9.10
2022,04,27,11,50,9.10
2022,04,27,11,51,9.10
2022,04,27,11,52,9.10
2022,04,27,11,53,9.10
2022,04,27,11,54,9.20
2022,04,27,11,55,9.30
2022,04,27,11,56,9.20
2022,04,27,11,57,9.20
2022,04,27,11,58,9.10
2022,04,27,11,59,9.10
2022,04,27,12,00,9.10
2022,04,27,12,01,9.00
2022,04,27,12,02,9.00
2022,04,27,12,03,9.00
2022,04,27,12,04,8.90
2022,04,27,12,05,8.90
2022,04,27,12,06,8.90
2022,04,27,12,07,8.90
2022,04,27,12,08,8.90
2022,04,27,12,09,8.90
2022,04,27,12,10,8.90
2022,04,27,12,11,8.90
2022,04,27,12,12,8.90
2022,04,27,12,13,8.90
2022,04,27,12,14,8.80
2022,04,27,12,15,8.80
2022,04,27,12,16,8.70
2022,04,27,12,17,8.70
2022,04,27,12,18,8.60
2022,04,27,12,19,8.60
2022,04,27,12,20,8.60
2022,04,27,12,21,8.60
2022,04,27,12,22,8.50
2022,04,27,12,23,8.60
2022,04,27,12,24,8.60
2022,04,27,12,25,8.70
2022,04,27,12,26,8.90
2022,04,27,12,27,9.00
2022,04,27,12,28,9.20
2022,04,27,12,29,9.20
2022,04,27,12,30,9.30
2022,04,27,12,31,9.20
2022,04,27,12,32,9.30
2022,04,27,12,33,9.30
2022,04,27,12,34,9.40
2022,04,27,12,35,9.60
2022,04,27,12,36,9.80
2022,04,27,12,37,9.90
2022,04,27,12,38,9.80
2022,04,27,12,39,9.80
2022,04,27,12,40,9.80
2022,04,27,12,41,9.80
2022,04,27,12,42,9.80
2022,04,27,12,43,9.70
2022,04,27,12,44,9.60
2022,04,27,12,45,9.50
2022,04,27,12,46,9.50
2022,04,27,12,47,9.40
2022,04,27,12,48,9.40
2022,04,27,12,49,9.40
2022,04,27,12,50,9.40
2022,04,27,12,51,9.40
2022,04,27,12,52,9.40
2022,04,27,12,53,9.30
2022,04,27,12,54,9.30
2022,04,27,12,55,9.30
2022,04,27,12,56,9.20
2022,04,27,12,57,9.30
2022,04,27,12,58,9.30
2022,04,27,12,59,9.30
2022,04,27,13,00,9.40
2022,04,27,13,01,9.50
2022,04,27,13,02,9.60
2022,04,27,13,03,9.80
2022,04,27,13,04,9.90
2022,04,27,13,05,10.00
2022,04,27,13,06,10.00
2022,04,27,13,07,10.00
2022,04,27,13,08,10.10
2022,04,27,13,09,10.20
2022,04,27,13,10,10.30
2022,04,27,13,11,10.40
2022,04,27,13,12,10.50
2022,04,27,13,13,10.70
2022,04,27,13,14,10.80
2022,04,27,13,15,11.00
2022,04,27,13,16,11.00
2022,04,27,13,17,11.10
2022,04,27,13,18,11.20
2022,04,27,13,19,11.20
2022,04,27,13,20,11.20
2022,04,27,13,21,11.30
2022,04,27,13,22,11.40
2022,04,27,13,23,11.50
2022,04,27,13,24,11.60
2022,04,27,13,25,11.70
2022,04,27,13,26,11.80
2022,04,27,13,27,11.90
2022,04,27,13,28,12.00
2022,04,27,13,29,12.20
2022,04,27,13,30,12.20
2022,04,27,13,31,12.30
2022,04,27,13,32,12.30
2022,04,27,13,33,12.30
2022,04,27,13,34,12.40
2022,04,27,13,35,12.40
2022,04,27,13,36,12.50
2022,04,27,13,37,12.60
2022,04,27,13,38,12.60
2022,04,27,13,39,12.60
2022,04,27,13,40,12.60
2022,04,27,13,41,12.60
2022,04,27,13,42,12.50
2022,04,27,13,43,12.50
2022,04,27,13,44,12.40
2022,04,27,13,45,12.40
2022,04,27,13,46,12.40
2022,04,27,13,47,12.30
2022,04,27,13,48,12.30
2022,04,27,13,49,12.30
2022,04,27,13,50,12.30
2022,04,27,13,51,12.30
2022,04,27,13,52,12.30
2022,04,27,13,53,12.30
2022,04,27,13,54,12.30
2022,04,27,13,55,12.30
2022,04,27,13,56,12.20
2022,04,27,13,57,12.20
2022,04,27,13,58,12.10
2022,04,27,13,59,12.10
2022,04,27,14,00,12.20
2022,04,27,14,01,12.20
2022,04,27,14,02,12.20
2022,04,27,14,03,12.20
2022,04,27,14,04,12.20
2022,04,27,14,05,12.20
2022,04,27,14,06,12.10
2022,04,27,14,07,12.10
2022,04,27,14,08,12.10
2022,04,27,14,09,12.00
2022,04,27,14,10,11.90
2022,04,27,14,11,11.80
2022,04,27,14,12,11.70
2022,04,27,14,13,11.60
2022,04,27,14,14,11.60
2022,04,27,14,15,11.60
2022,04,27,14,16,11.50
2022,04,27,14,17,11.50
2022,04,27,14,18,11.50
2022,04,27,14,19,11.40
2022,04,27,14,20,11.40
2022,04,27,14,21,11.40
2022,04,27,14,22,11.40
2022,04,27,14,23,11.40
2022,04,27,14,24,11.40
2022,04,27,14,25,11.50
2022,04,27,14,26,11.50
2022,04,27,14,27,11.60
2022,04,27,14,28,11.60
2022,04,27,14,29,11.60
2022,04,27,14,30,11.60
2022,04,27,14,31,11.70
2022,04,27,14,32,11.60
2022,04,27,14,33,11.60
2022,04,27,14,34,11.60
2022,04,27,14,35,11.60
2022,04,27,14,36,11.50
2022,04,27,14,37,11.50
2022,04,27,14,38,11.40
2022,04,27,14,39,11.40
2022,04,27,14,40,11.40
2022,04,27,14,41,11.30
2022,04,27,14,42,11.30
2022,04,27,14,43,11.30
2022,04,27,14,44,11.30
2022,04,27,14,45,11.30
2022,04,27,14,46,11.30
2022,04,27,14,47,11.30
2022,04,27,14,48,11.40
2022,04,27,14,49,11.40
2022,04,27,14,50,11.50
2022,04,27,14,51,11.50
2022,04,27,14,52,11.60
2022,04,27,14,53,11.60
2022,04,27,14,54,11.70
2022,04,27,14,55,11.70
2022,04,27,14,56,11.80
2022,04,27,14,57,11.80
2022,04,27,14,58,11.80
2022,04,27,14,59,11.80
2022,04,27,15,00,11.80
2022,04,27,15,01,11.90
2022,04,27,15,02,11.90
2022,04,27,15,03,12.00
2022,04,27,15,04,12.10
2022,04,27,15,05,12.10
2022,04,27,15,06,12.10
2022,04,27,15,07,12.00
2022,04,27,15,08,12.00
2022,04,27,15,09,12.00
2022,04,27,15,10,12.00
2022,04,27,15,11,12.10
2022,04,27,15,12,12.10
2022,04,27,15,13,12.20
2022,04,27,15,14,12.20
2022,04,27,15,15,12.20
2022,04,27,15,16,12.20
2022,04,27,15,17,12.10
2022,04,27,15,18,12.00
2022,04,27,15,19,11.90
2022,04,27,15,20,11.90
2022,04,27,15,21,11.80
2022,04,27,15,22,11.70
2022,04,27,15,23,11.50
2022,04,27,15,24,11.40
2022,04,27,15,25,11.30
2022,04,27,15,26,11.20
2022,04,27,15,27,11.20
2022,04,27,15,28,11.10
2022,04,27,15,29,11.00
2022,04,27,15,30,11.00
2022,04,27,15,31,11.00
2022,04,27,15,32,10.90
2022,04,27,15,33,10.90
2022,04,27,15,34,10.90
2022,04,27,15,35,10.90
2022,04,27,15,36,10.80
2022,04,27,15,37,10.80
2022,04,27,15,38,10.80
2022,04,27,15,39,10.90
2022,04,27,15,40,10.80
2022,04,27,15,41,10.90
2022,04,27,15,42,10.90
2022,04,27,15,43,11.00
2022,04,27,15,44,11.00
2022,04,27,15,45,11.00
2022,04,27,15,46,11.10
2022,04,27,15,47,11.10
2022,04,27,15,48,11.10
2022,04,27,15,49,11.10
2022,04,27,15,50,11.20
2022,04,27,15,51,11.20
2022,04,27,15,52,11.20
2022,04,27,15,53,11.10
2022,04,27,15,54,11.20
2022,04,27,15,55,11.20
2022,04,27,15,56,11.20
2022,04,27,15,57,11.30
2022,04,27,15,58,11.40
2022,04,27,15,59,11.50
2022,04,27,16,00,11.60
2022,04,27,16,01,11.70
2022,04,27,16,02,11.70
2022,04,27,16,03,11.80
2022,04,27,16,04,11.90
2022,04,27,16,05,11.80
2022,04,27,16,06,11.80
2022,04,27,16,07,11.70
2022,04,27,16,08,11.70
2022,04,27,16,09,11.70
2022,04,27,16,10,11.80
2022,04,27,16,11,11.80
2022,04,27,16,12,11.80
2022,04,27,16,13,11.80
2022,04,27,16,14,11.80
2022,04,27,16,15,11.80
2022,04,27,16,16,11.70
2022,04,27,16,17,11.70
2022,04,27,16,18,11.70
2022,04,27,16,19,11.60
2022,04,27,16,20,11.50
2022,04,27,16,21,11.40
2022,04,27,16,22,11.40
2022,04,27,16,23,11.40
2022,04,27,16,24,11.40
2022,04,27,16,25,11.40
2022,04,27,16,26,11.30
2022,04,27,16,27,11.30
2022,04,27,16,28,11.30
2022,04,27,16,29,11.20
2022,04,27,16,30,11.20
2022,04,27,16,31,11.20
2022,04,27,16,32,11.20
2022,04,27,16,33,11.20
2022,04,27,16,34,11.10
2022,04,27,16,35,11.10
2022,04,27,16,36,11.00
2022,04,27,16,37,10.90
2022,04,27,16,38,10.80
2022,04,27,16,39,10.70
2022,04,27,16,40,10.70
2022,04,27,16,41,10.70
2022,04,27,16,42,10.70
2022,04,27,16,43,10.70
2022,04,27,16,44,10.60
2022,04,27,16,45,10.60
2022,04,27,16,46,10.50
2022,04,27,16,47,10.50
2022,04,27,16,48,10.50
2022,04,27,16,49,10.50
2022,04,27,16,50,10.50
2022,04,27,16,51,10.50
2022,04,27,16,52,10.40
2022,04,27,16,53,10.40
2022,04,27,16,54,10.40
2022,04,27,16,55,10.40
2022,04,27,16,56,10.40
2022,04,27,16,57,10.40
2022,04,27,16,58,10.30
2022,04,27,16,59,10.30
2022,04,27,17,00,10.30
2022,04,27,17,01,10.30
2022,04,27,17,02,10.20
2022,04,27,17,03,10.20
2022,04,27,17,04,10.20
2022,04,27,17,05,10.20
2022,04,27,17,06,10.10
2022,04,27,17,07,10.10
2022,04,27,17,08,10.10
2022,04,27,17,09,10.10
2022,04,27,17,10,10.00
2022,04,27,17,11,10.00
2022,04,27,17,12,10.00
2022,04,27,17,13,10.00
2022,04,27,17,14,10.00
2022,04,27,17,15,10.00
2022,04,27,17,16,10.00
2022,04,27,17,17,10.00
2022,04,27,17,18,10.00
2022,04,27,17,19,10.10
2022,04,27,17,20,10.10
2022,04,27,17,21,10.10
2022,04,27,17,22,10.10
2022,04,27,17,23,10.10
2022,04,27,17,24,10.10
2022,04,27,17,25,10.10
2022,04,27,17,26,10.10
2022,04,27,17,27,10.10
2022,04,27,17,28,10.20
2022,04,27,17,29,10.20
2022,04,27,17,30,10.20
2022,04,27,17,31,10.30
2022,04,27,17,32,10.40
2022,04,27,17,33,10.40
2022,04,27,17,34,10.50
2022,04,27,17,35,10.50
2022,04,27,17,36,10.60
2022,04,27,17,37,10.70
2022,04,27,17,38,10.70
2022,04,27,17,39,10.80
2022,04,27,17,40,10.80
2022,04,27,17,41,10.80
2022,04,27,17,42,10.80
2022,04,27,17,43,10.80
2022,04,27,17,44,10.80
2022,04,27,17,45,10.90
2022,04,27,17,46,11.00
2022,04,27,17,47,11.00
2022,04,27,17,48,11.00
2022,04,27,17,49,11.00
2022,04,27,17,50,11.00
2022,04,27,17,51,11.00
2022,04,27,17,52,11.00